Location: Hopkins Observatory
(42.6965°N, 73.1843°W)
Time: 15:27:26
(UTC-04:00)

UOSAT-12 - Visible Passes

Search period start: 26 April 2015 00:00
Search period end: 06 May 2015 00:00
Orbit: 596 x 659 km, 64.6° (Epoch: 26 April)

Date Brightness Start Highest point End Pass type
(mag) Time Alt. Az. Time Alt. Az. Time Alt. Az.
26 Apr 7.2 21:31:46 10° NNW 21:36:24 65° NE 21:37:59 39° ESE visible
26 Apr 9.5 23:13:19 10° WNW 23:15:18 15° W 23:15:18 15° W visible
27 Apr 8.8 20:12:25 10° N 20:15:59 21° NE 20:19:35 10° E visible
27 Apr 7.4 21:51:56 10° NW 21:56:32 60° WSW 21:57:49 42° S visible
28 Apr 7.9 20:32:07 10° NNW 20:36:29 38° NE 20:40:23 12° ESE visible
28 Apr 8.6 22:12:33 10° NW 22:16:30 27° WSW 22:17:43 24° SW visible
29 Apr 7.1 20:52:04 10° NNW 20:56:46 77° NE 21:00:19 17° SE visible
29 Apr 9.6 22:34:16 10° W 22:36:19 12° WSW 22:37:39 11° SW visible
30 Apr 7.8 21:12:20 10° NW 21:16:50 49° WSW 21:20:20 15° S visible
01 May 9.1 21:33:05 10° WNW 21:36:45 23° WSW 21:40:17 10° SSW visible
02 May 10.0 21:56:06 10° WSW 21:56:34 10° WSW 21:56:44 10° WSW visible
03 May 8.3 20:32:45 10° NW 20:37:07 41° WSW 20:41:23 10° S visible
04 May 9.5 20:53:41 10° WNW 20:57:01 19° WSW 21:00:09 10° SSW visible
